Location: Cheching
(60.0667°N, 164.2167°W)
Time: 17:56:00
(UTC+00:00)

COSMOS 1408 DEB - Visible Passes

Search period start: 30 November 2022 00:00
Search period end: 10 December 2022 00:00
Orbit: 455 x 748 km, 82.5° (Epoch: 28 November)

Date Brightness Start Highest point End Pass type
(mag) Time Alt. Az. Time Alt. Az. Time Alt. Az.
30 Nov ? 04:05:55 10° WNW 04:06:46 10° WNW 04:07:36 10° W visible
30 Nov ? 13:32:36 14° ENE 13:32:36 14° ENE 13:34:25 10° NE visible
30 Nov ? 15:09:26 47° NE 15:09:26 47° NE 15:13:14 10° NNE visible
30 Nov ? 16:46:17 33° WNW 16:46:17 33° WNW 16:50:40 10° N visible
30 Nov ? 18:23:41 10° NW 18:25:11 11° NW 18:26:40 10° NNW visible
01 Dec ? 13:45:11 16° NE 13:45:11 16° NE 13:46:50 10° NE visible
01 Dec ? 15:22:01 40° NNE 15:22:01 40° NNE 15:25:10 10° NNE visible
01 Dec ? 16:58:51 26° NW 16:58:51 26° NW 17:02:25 10° N visible
02 Dec ? 02:50:04 10° NNW 02:53:53 26° W 02:57:27 10° SW visible
02 Dec ? 13:57:36 17° NE 13:57:36 17° NE 13:59:01 10° NNE visible
02 Dec ? 15:34:26 32° N 15:34:26 32° N 15:37:02 10° NNE visible
02 Dec ? 17:11:15 20° NW 17:11:15 20° NW 17:14:06 10° N visible
03 Dec ? 03:02:19 10° NW 03:05:29 19° W 03:08:29 10° SW visible
03 Dec ? 14:09:54 16° NNE 14:09:54 16° NNE 14:11:04 10° NNE visible
03 Dec ? 15:46:43 25° N 15:46:43 25° N 15:48:51 10° N visible
03 Dec ? 17:23:32 16° NNW 17:23:32 16° NNW 17:25:41 10° N visible
04 Dec ? 03:14:50 10° NW 03:17:01 13° WNW 03:19:07 10° WSW visible
04 Dec ? 14:22:06 15° NNE 14:22:06 15° NNE 14:23:02 10° NNE visible
04 Dec ? 15:58:55 21° N 15:58:55 21° N 16:00:37 10° N visible
04 Dec ? 17:35:43 13° NNW 17:35:43 13° NNW 17:37:05 10° NNW visible
05 Dec ? 14:34:13 14° NNE 14:34:13 14° NNE 14:34:56 10° NNE visible
05 Dec ? 16:11:02 17° N 16:11:02 17° N 16:12:19 10° N visible
05 Dec ? 17:47:50 10° NNW 17:47:50 10° NNW 17:47:57 10° NNW visible
06 Dec ? 14:46:16 13° NNE 14:46:16 13° NNE 14:46:45 10° NNE visible
06 Dec ? 16:23:05 14° N 16:23:05 14° N 16:23:57 10° N visible
07 Dec ? 14:58:16 11° NNE 14:58:16 11° NNE 14:58:30 10° NNE visible
07 Dec ? 16:35:04 12° N 16:35:04 12° N 16:35:30 10° N visible
08 Dec ? 15:10:12 10° N 15:10:12 10° N 15:10:13 10° N visible
